EW4921 Weather Reports


Display with metric or nautical units.
time (UTC)temp
F
wind
direction
speed
MPH
gust
MPH
rain 1hr
in
rain 24hr
in
rain mn
in
humidity
%
barometer
mb
20200715045333 61 295 0.0 1.0 0.00 0.00 0.00 80 1015.8
20200715044823 61 295 0.0 0.0 0.00 0.00 0.00 80 1015.7
20200715044333 61 295 0.0 0.0 0.00 0.00 0.00 80 1015.7
20200715043819 61 295 0.0 0.0 0.00 0.00 0.00 80 1015.7
20200715043328 62 295 0.0 0.0 0.00 0.00 0.00 80 1015.7
20200715042832 62 295 0.0 0.0 0.00 0.00 0.00 79 1015.6
20200715042323 62 295 0.0 3.0 0.00 0.00 0.00 79 1015.5
20200715041830 62 295 0.0 3.0 0.00 0.00 0.00 79 1015.6
20200715041319 62 297 0.0 0.0 0.00 0.00 0.00 78 1015.6
20200715040824 62 297 0.0 0.0 0.00 0.00 0.00 78 1015.6
20200715040333 63 297 0.0 0.0 0.00 0.00 0.00 78 1015.4
20200715035819 63 297 0.0 0.0 0.00 0.00 0.00 78 1015.4
20200715035328 63 297 0.0 0.0 0.00 0.00 0.00 77 1015.3
20200715034834 63 297 0.0 0.0 0.00 0.00 0.00 77 1015.2
20200715034343 63 297 0.0 0.0 0.00 0.00 0.00 77 1015.2
20200715033819 64 297 0.0 1.0 0.00 0.00 0.00 76 1015.2
20200715033329 64 297 0.0 1.0 0.00 0.00 0.00 76 1015.2
20200715032819 64 297 0.0 1.0 0.00 0.00 0.00 75 1015.3
20200715032328 64 297 0.0 1.0 0.00 0.00 0.00 75 1015.3
20200715031834 65 297 0.0 0.0 0.00 0.00 0.00 74 1015.3
20200715031324 65 297 0.0 0.0 0.00 0.00 0.00 73 1015.3
20200715030831 66 297 0.0 0.0 0.00 0.00 0.00 73 1015.2
20200715030322 66 297 0.0 0.0 0.00 0.00 0.00 72 1015.1
20200715025828 66 297 0.0 0.0 0.00 0.00 0.00 72 1015.2
20200715025318 66 297 0.0 0.0 0.00 0.00 0.00 71 1015.1
20200715024826 67 297 0.0 1.0 0.00 0.00 0.00 71 1015.1
20200715024319 67 297 0.0 1.0 0.00 0.00 0.00 71 1015.1
20200715023826 67 298 0.0 0.0 0.00 0.00 0.00 70 1015.2
20200715023318 68 298 0.0 1.0 0.00 0.00 0.00 69 1015.1
20200715022823 68 298 0.0 1.0 0.00 0.00 0.00 69 1015.1
20200715022332 68 298 0.0 1.0 0.00 0.00 0.00 69 1015.1
20200715021819 68 296 0.0 2.0 0.00 0.00 0.00 68 1015.0
20200715021327 69 295 0.0 2.0 0.00 0.00 0.00 68 1015.0
20200715020835 69 346 0.0 2.0 0.00 0.00 0.00 67 1015.0
20200715020323 69 346 0.0 3.0 0.00 0.00 0.00 67 1014.9
20200715015830 70 329 0.0 1.0 0.00 0.00 0.00 66 1014.9
20200715015320 70 329 0.0 1.0 0.00 0.00 0.00 66 1014.9
20200715014828 70 329 0.0 1.0 0.00 0.00 0.00 65 1014.9
20200715014318 71 329 0.0 1.0 0.00 0.00 0.00 65 1014.9
20200715013827 71 56 0.0 1.0 0.00 0.00 0.00 64 1014.9
20200715013336 71 192 0.0 1.0 0.00 0.00 0.00 64 1014.8
20200715012821 72 189 0.0 2.0 0.00 0.00 0.00 63 1014.8
20200715012330 72 184 0.0 2.0 0.00 0.00 0.00 63 1014.9
20200715011835 72 117 0.0 1.0 0.00 0.00 0.00 62 1014.9
20200715011328 73 53 0.0 1.0 0.00 0.00 0.00 62 1014.9
20200715010815 73 53 0.0 2.0 0.00 0.00 0.00 62 1014.8
20200715010327 73 160 0.0 4.0 0.00 0.00 0.00 61 1014.7
20200715005835 73 300 0.0 4.0 0.00 0.00 0.00 60 1014.6
20200715005325 74 121 0.0 1.0 0.00 0.00 0.00 60 1014.6
20200715004833 74 107 0.0 1.0 0.00 0.00 0.00 60 1014.5
20200715004322 74 101 0.0 5.0 0.00 0.00 0.00 59 1014.5
20200715003828 74 309 1.0 5.0 0.00 0.00 0.00 59 1014.6
20200715003317 75 39 0.0 3.0 0.00 0.00 0.00 59 1014.6
20200715002827 75 38 1.0 9.0 0.00 0.00 0.00 58 1014.7
20200715002335 75 38 1.0 9.0 0.00 0.00 0.00 57 1014.7
20200715001833 75 34 0.0 4.0 0.00 0.00 0.00 58 1014.6
20200715001333 76 360 0.0 4.0 0.00 0.00 0.00 57 1014.7
20200715000819 76 46 0.0 1.0 0.00 0.00 0.00 58 1014.6
20200715000331 76 53 0.0 2.0 0.00 0.00 0.00 58 1014.6
20200714235834 77 54 0.0 5.0 0.00 0.00 0.00 58 1014.6
20200714235322 77 279 0.0 4.0 0.00 0.00 0.00 57 1014.8
20200714234829 77 208 0.0 4.0 0.00 0.00 0.00 56 1014.8
20200714234322 77 161 0.0 3.0 0.00 0.00 0.00 56 1014.8
20200714233828 78 42 0.0 4.0 0.00 0.00 0.00 55 1014.9
20200714233317 78 211 0.0 4.0 0.00 0.00 0.00 55 1014.8
20200714232819 78 148 0.0 3.0 0.00 0.00 0.00 57 1014.6
20200714232328 78 320 0.0 6.0 0.00 0.00 0.00 55 1014.7
20200714231817 78 282 1.0 6.0 0.00 0.00 0.00 56 1014.7
20200714231322 78 22 1.0 6.0 0.00 0.00 0.00 56 1014.8
20200714230830 78 168 0.0 6.0 0.00 0.00 0.00 55 1014.8
20200714230319 78 9 2.0 6.0 0.00 0.00 0.00 56 1015.0
20200714225828 78 199 0.0 6.0 0.00 0.00 0.00 55 1014.9
20200714225322 78 207 2.0 6.0 0.00 0.00 0.00 56 1015.0
20200714224828 78 207 1.0 6.0 0.00 0.00 0.00 55 1015.0
20200714224336 79 37 0.0 5.0 0.00 0.00 0.00 54 1015.1
20200714223819 79 132 0.0 6.0 0.00 0.00 0.00 55 1015.1
20200714223329 79 77 0.0 6.0 0.00 0.00 0.00 56 1015.1
20200714222834 80 9 1.0 7.0 0.00 0.00 0.00 54 1015.0
20200714222323 80 39 2.0 7.0 0.00 0.00 0.00 55 1015.1
20200714221831 80 46 2.0 6.0 0.00 0.00 0.00 55 1015.1
20200714221323 80 90 0.0 3.0 0.00 0.00 0.00 54 1015.2
20200714220832 80 97 0.0 6.0 0.00 0.00 0.00 53 1015.2
20200714220322 81 165 0.0 6.0 0.00 0.00 0.00 53 1015.3
20200714215828 81 311 1.0 9.0 0.00 0.00 0.00 52 1015.3
20200714215318 82 360 0.0 5.0 0.00 0.00 0.00 51 1015.3
20200714214821 82 355 1.0 5.0 0.00 0.00 0.00 50 1015.4
20200714214321 83 169 1.0 6.0 0.00 0.00 0.00 52 1015.4
20200714213827 83 137 0.0 4.0 0.00 0.00 0.00 50 1015.5
20200714213336 83 138 0.0 3.0 0.00 0.00 0.00 51 1015.5
20200714212821 82 179 0.0 11.0 0.00 0.00 0.00 50 1015.5
20200714212330 83 190 1.0 11.0 0.00 0.00 0.00 50 1015.5
20200714211820 83 304 0.0 6.0 0.00 0.00 0.00 50 1015.5
20200714211336 83 190 1.0 6.0 0.00 0.00 0.00 49 1015.5
20200714210822 83 71 0.0 3.0 0.00 0.00 0.00 51 1015.4
20200714210331 83 79 0.0 7.0 0.00 0.00 0.00 50 1015.4
20200714205818 83 355 0.0 10.0 0.00 0.00 0.00 50 1015.5
20200714205327 83 231 3.0 10.0 0.00 0.00 0.00 50 1015.5
20200714204835 83 194 1.0 9.0 0.00 0.00 0.00 51 1015.6
20200714204323 83 141 1.0 6.0 0.00 0.00 0.00 51 1015.6
20200714203829 83 204 0.0 6.0 0.00 0.00 0.00 50 1015.7
20200714203322 83 24 0.0 9.0 0.00 0.00 0.00 52 1015.8
20200714202827 82 305 0.0 9.0 0.00 0.00 0.00 52 1015.8
20200714202317 82 325 1.0 5.0 0.00 0.00 0.00 53 1015.8
20200714201825 83 27 0.0 6.0 0.00 0.00 0.00 51 1015.8
20200714201334 83 315 1.0 6.0 0.00 0.00 0.00 49 1015.8
20200714200823 83 150 0.0 10.0 0.00 0.00 0.00 52 1015.9
20200714200332 83 261 0.0 10.0 0.00 0.00 0.00 51 1015.8
20200714195836 83 242 0.0 7.0 0.00 0.00 0.00 52 1015.9
20200714195326 83 53 0.0 7.0 0.00 0.00 0.00 50 1015.9
20200714194818 83 215 1.0 7.0 0.00 0.00 0.00 50 1015.8
20200714194326 83 168 1.0 5.0 0.00 0.00 0.00 51 1015.8
20200714193816 83 165 1.0 4.0 0.00 0.00 0.00 51 1015.8
20200714193329 83 225 0.0 6.0 0.00 0.00 0.00 51 1015.7
20200714192818 83 141 0.0 6.0 0.00 0.00 0.00 52 1015.8
20200714192327 83 210 1.0 4.0 0.00 0.00 0.00 52 1015.7
20200714191836 83 222 0.0 4.0 0.00 0.00 0.00 51 1015.8
20200714191326 82 167 0.0 4.0 0.00 0.00 0.00 51 1015.8
20200714190831 82 191 0.0 4.0 0.00 0.00 0.00 54 1015.8
20200714190325 82 152 0.0 4.0 0.00 0.00 0.00 50 1015.8
20200714185834 82 182 1.0 4.0 0.00 0.00 0.00 50 1015.9
20200714185323 81 191 0.0 5.0 0.00 0.00 0.00 51 1015.9
20200714184829 81 184 0.0 5.0 0.00 0.00 0.00 53 1015.9
20200714184318 81 211 0.0 4.0 0.00 0.00 0.00 52 1016.0
20200714183826 81 194 1.0 4.0 0.00 0.00 0.00 50 1015.9
20200714183335 80 207 0.0 4.0 0.00 0.00 0.00 51 1015.9
20200714182821 80 219 0.0 2.0 0.00 0.00 0.00 51 1015.9
20200714182314 80 200 0.0 4.0 0.00 0.00 0.00 52 1015.8
20200714181823 80 190 0.0 4.0 0.00 0.00 0.00 56 1015.8
20200714181332 79 194 0.0 4.0 0.00 0.00 0.00 51 1015.7
20200714180822 79 211 0.0 4.0 0.00 0.00 0.00 52 1015.8
20200714180334 78 217 0.0 4.0 0.00 0.00 0.00 54 1015.8
20200714175820 78 207 0.0 5.0 0.00 0.00 0.00 52 1015.9
20200714175329 78 202 1.0 5.0 0.00 0.00 0.00 52 1015.9
20200714174835 78 215 0.0 4.0 0.00 0.00 0.00 55 1016.0
20200714174324 77 184 0.0 4.0 0.00 0.00 0.00 56 1015.9
20200714173830 77 212 0.0 4.0 0.00 0.00 0.00 58 1016.0
20200714173323 76 192 0.0 4.0 0.00 0.00 0.00 55 1016.0
20200714172828 76 200 1.0 4.0 0.00 0.00 0.00 56 1015.9
20200714172317 75 203 0.0 3.0 0.00 0.00 0.00 57 1015.9
20200714171823 75 171 0.0 3.0 0.00 0.00 0.00 58 1015.9
20200714171333 74 180 0.0 1.0 0.00 0.00 0.00 60 1016.0
20200714170818 74 180 0.0 4.0 0.00 0.00 0.00 61 1015.8
20200714170326 73 177 0.0 4.0 0.00 0.00 0.00 61 1015.9
20200714165832 73 136 0.0 3.0 0.00 0.00 0.00 61 1015.9
20200714165321 73 136 0.0 3.0 0.00 0.00 0.00 63 1016.0
20200714164831 72 173 0.0 4.0 0.00 0.00 0.00 64 1016.0
20200714164321 71 158 0.0 1.0 0.00 0.00 0.00 66 1016.1
20200714163828 71 162 0.0 1.0 0.00 0.00 0.00 66 1016.0
20200714163320 71 184 0.0 5.0 0.00 0.00 0.00 66 1016.1
20200714162827 70 192 1.0 5.0 0.00 0.00 0.00 68 1016.1
20200714162319 69 170 2.0 5.0 0.00 0.00 0.00 71 1016.1
20200714161828 69 97 0.0 1.0 0.00 0.00 0.00 71 1016.1
20200714161316 69 83 0.0 1.0 0.00 0.00 0.00 72 1016.1
20200714160827 68 193 0.0 5.0 0.00 0.00 0.00 72 1016.1
20200714160321 68 203 0.0 5.0 0.00 0.00 0.00 72 1016.1
20200714155831 67 187 1.0 5.0 0.00 0.00 0.00 73 1016.1
20200714155337 67 163 1.0 7.0 0.00 0.00 0.00 73 1016.2
20200714154824 66 111 0.0 7.0 0.00 0.00 0.00 74 1016.1
20200714154332 66 178 0.0 5.0 0.00 0.00 0.00 74 1016.2
20200714153818 66 141 0.0 6.0 0.00 0.00 0.00 75 1016.2
20200714153317 66 103 0.0 6.0 0.00 0.00 0.00 75 1016.2
20200714152819 66 181 1.0 5.0 0.00 0.00 0.00 76 1016.1
20200714152319 66 167 0.0 5.0 0.00 0.00 0.00 77 1016.1
20200714151827 65 106 0.0 1.0 0.00 0.00 0.00 79 1016.0
20200714151326 65 138 0.0 1.0 0.00 0.00 0.00 80 1016.1
20200714150832 65 140 0.0 6.0 0.00 0.00 0.00 78 1016.1
20200714150333 64 141 0.0 6.0 0.00 0.00 0.00 79 1016.1
20200714145824 64 159 0.0 8.0 0.00 0.00 0.00 80 1016.0
20200714145326 64 145 0.0 8.0 0.00 0.00 0.00 80 1015.9
20200714144833 64 111 0.0 0.0 0.00 0.00 0.00 81 1015.8
20200714144333 64 111 0.0 1.0 0.00 0.00 0.00 81 1015.8
20200714143834 64 112 0.0 1.0 0.00 0.00 0.00 81 1015.8
20200714143335 63 131 0.0 1.0 0.00 0.00 0.00 81 1015.8
20200714142821 63 130 0.0 1.0 0.00 0.00 0.00 82 1015.8
20200714142321 63 132 0.0 1.0 0.00 0.00 0.00 83 1015.7
20200714141829 63 131 0.0 1.0 0.00 0.00 0.00 82 1015.7
20200714141330 63 132 0.0 0.0 0.00 0.00 0.00 83 1015.6
20200714140836 63 132 0.0 1.0 0.00 0.00 0.00 83 1015.6
20200714140326 63 175 0.0 1.0 0.00 0.00 0.00 84 1015.6
20200714135834 63 175 0.0 1.0 0.00 0.00 0.00 84 1015.5
20200714135323 63 186 0.0 2.0 0.00 0.00 0.00 84 1015.5
20200714134829 62 186 0.0 3.0 0.00 0.00 0.00 85 1015.4
20200714134325 62 188 0.0 3.0 0.00 0.00 0.00 86 1015.4
20200714133832 62 185 0.0 0.0 0.00 0.00 0.00 86 1015.6
20200714133324 62 184 0.0 0.0 0.00 0.00 0.00 86 1015.5
20200714132830 62 187 0.0 0.0 0.00 0.00 0.00 86 1015.5
20200714132320 62 187 0.0 0.0 0.00 0.00 0.00 86 1015.5
20200714131825 62 187 0.0 1.0 0.00 0.00 0.00 86 1015.5
20200714131316 62 187 0.0 1.0 0.00 0.00 0.00 86 1015.5
20200714130823 62 187 0.0 0.0 0.00 0.00 0.00 86 1015.5
20200714130332 62 187 0.0 1.0 0.00 0.00 0.00 87 1015.3
20200714125826 62 187 0.0 5.0 0.00 0.00 0.00 87 1015.2
20200714125333 61 184 0.0 5.0 0.00 0.00 0.00 86 1015.2
20200714124817 62 86 0.0 1.0 0.00 0.00 0.00 87 1015.1
20200714124327 62 86 0.0 1.0 0.00 0.00 0.00 87 1015.1
20200714123831 62 89 0.0 1.0 0.00 0.00 0.00 87 1015.0
20200714123321 62 89 0.0 2.0 0.00 0.00 0.00 87 1015.0
20200714122830 62 75 0.0 2.0 0.00 0.00 0.00 86 1015.0
20200714122315 62 13 0.0 6.0 0.00 0.00 0.00 87 1015.1
20200714121823 62 15 0.0 6.0 0.00 0.00 0.00 87 1015.1
20200714121318 61 138 0.0 3.0 0.00 0.00 0.00 86 1015.0
20200714120825 61 133 0.0 3.0 0.00 0.00 0.00 86 1015.0
20200714120316 61 90 0.0 3.0 0.00 0.00 0.00 87 1015.0
20200714115824 61 74 0.0 1.0 0.00 0.00 0.00 87 1014.8
20200714115333 61 174 0.0 3.0 0.00 0.00 0.00 87 1014.8
20200714114822 61 190 0.0 3.0 0.00 0.00 0.00 87 1014.8